Regional Weather Roundup
Issued by NWS

Home | Current Version | Previous Version | Graphics & Text | Print | Product List | Glossary Off
Versions: 1 2 3 4 5 6 7 8 9 10 11 12 13 14 15 16 17 18 19 20 21 22 23 24 25 26 27 28 29 30 31 32 33 34 35 36 37 38 39 40 41 42 43 44 45 46 47 48 49 50

000
ASUS43 KFSD 220902
RWRSD

WEATHER ROUNDUP FOR SOUTH DAKOTA
NATIONAL WEATHER SERVICE SIOUX FALLS SD
400 AM CDT FRI AUG 22 2014

NOTE: "FAIR" INDICATES FEW OR NO CLOUDS BELOW 12,000 FEET WITH NO
SIGNIFICANT WEATHER AND/OR OBSTRUCTIONS TO VISIBILITY.


SDZ001>005-009-010-012>017-221000-
NORTHWEST AND NORTH CENTRAL SOUTH DAKOTA

CITY           SKY/WX    TMP DP  RH WIND       PRES   REMARKS
BUFFALO          N/A     60  58  92 E8        29.98S
FAITH            N/A     62  61  96 NE10      30.01R
MOBRIDGE       CLOUDY    67  64  90 N14G23    29.97F
$$

SDZ012>016-024>037-041>051-057-063-072>074-221000-
SOUTHWEST AND SOUTH CENTRAL SOUTH DAKOTA

CITY           SKY/WX    TMP DP  RH WIND       PRES   REMARKS
RAPID CTY ARPT PTCLDY    63  60  90 N15G29    30.03R
PIERRE         LGT RAIN  67  65  93 E13       29.91S
CUSTER         CLEAR     52  49  89 CALM      30.12S
ELLSWORTH AFB  PTCLDY    63  61  95 N16G29    30.03R
PHILIP         PTCLDY    66  60  81 NE8       29.95R
PINE RIDGE     MOCLDY    67  53  61 W6        30.00R
WINNER         FAIR      64  61  90 E6        29.94S
$$

SDZ004>011-016>023-039-040-221000-
NORTHEAST SOUTH DAKOTA

CITY           SKY/WX    TMP DP  RH WIND       PRES   REMARKS
ABERDEEN       CLEAR     62  62 100 N5        29.92R
WATERTOWN      FOG       63  63 100 CALM      29.92S VSB 1/2
SISSETON         N/A     64  64 100 NW3       29.90R
$$

SDZ017-020-022-023-036>040-048>070-221000-
SOUTHEAST SOUTH DAKOTA

CITY           SKY/WX    TMP DP  RH WIND       PRES   REMARKS
SIOUX FALLS    CLEAR     64  63  96 NE3       29.92R
HURON          FOG       59  58  96 NW3       29.90F VSB 1
CHAMBERLAIN    CLEAR     64  63  95 CALM      29.93S
MITCHELL       CLEAR     64  63  96 NW5       29.91S
YANKTON        CLEAR     68  66  94 NW3       29.90R
$$

ABBREVIATIONS USED IN REMARKS
   TC - TEMPERATURE IN CELSIUS
  WCI - WIND CHILL INDEX
   HX - HEAT INDEX
  VSB - VISIBILITY



USA.gov is the U.S. government's official web portal to all federal, state and local government web resources and services.